XMF YRTI-YGIN

Flight info

Callsign XMF
Flight time N/A
Altitude 5000
Route PH
Aircraft TBM9/L-SDFGRWY/S

Departure

Time 2026-04-26 14:24
Airport Rottnest Island Airport (YRTI)

Arrival

Time N/A
Airport YGIN
Time Latitude Longitude Altitude Speed Heading
2026-04-26 14:07 -32.00536 115.54225 10 ft 0 kts 43°
2026-04-26 14:19 -32.00529 115.54242 10 ft 8 kts 83°
2026-04-26 14:19 -32.00529 115.54279 10 ft 3 kts 106°
2026-04-26 14:19 -32.00568 115.54311 11 ft 11 kts 189°
2026-04-26 14:19 -32.00588 115.54309 12 ft 0 kts 179°
2026-04-26 14:21 -32.00623 115.54324 13 ft 9 kts 114°
2026-04-26 14:22 -32.00624 115.54407 13 ft 11 kts 78°
2026-04-26 14:22 -32.00623 115.54451 13 ft 2 kts 131°
2026-04-26 14:22 -32.00629 115.54402 13 ft 10 kts 266°
2026-04-26 14:22 -32.00628 115.54333 13 ft 0 kts 271°
2026-04-26 14:23 -32.00627 115.54185 12 ft 49 kts 270°
2026-04-26 14:23 -32.00618 115.53497 51 ft 113 kts 271°
2026-04-26 14:23 -32.00589 115.52464 411 ft 142 kts 274°
2026-04-26 14:24 -32.00518 115.51297 1005 ft 133 kts 271°
2026-04-26 14:24 -32.00313 115.50233 1224 ft 140 kts 307°
2026-04-26 14:24 -31.99450 115.49781 1481 ft 141 kts 359°
2026-04-26 14:24 -31.98478 115.49937 1728 ft 143 kts 26°
2026-04-26 14:25 -31.97828 115.50808 1982 ft 144 kts 59°
2026-04-26 14:25 -31.97303 115.51820 2234 ft 145 kts 58°
2026-04-26 14:25 -31.96770 115.52834 2490 ft 146 kts 58°
2026-04-26 14:25 -31.96238 115.53853 2744 ft 146 kts 58°
2026-04-26 14:26 -31.95685 115.54917 2797 ft 159 kts 59°
2026-04-26 14:26 -31.94984 115.55948 2792 ft 166 kts 34°
2026-04-26 14:26 -31.93869 115.56219 2791 ft 169 kts 350°
2026-04-26 14:26 -31.92742 115.55824 2798 ft 170 kts 345°
2026-04-26 14:27 -31.91545 115.55694 2789 ft 176 kts
2026-04-26 14:27 -31.90315 115.55849 2792 ft 179 kts
2026-04-26 14:27 -31.89076 115.56029 2792 ft 180 kts
2026-04-26 14:27 -31.87826 115.56198 2791 ft 181 kts
2026-04-26 14:28 -31.86576 115.56364 2786 ft 181 kts
2026-04-26 14:28 -31.85324 115.56530 2792 ft 181 kts
2026-04-26 14:28 -31.84037 115.56701 2797 ft 194 kts
2026-04-26 14:28 -31.82654 115.56890 2808 ft 205 kts
2026-04-26 14:29 -31.81221 115.57084 2800 ft 210 kts
2026-04-26 14:29 -31.79760 115.57280 2809 ft 212 kts
2026-04-26 14:29 -31.78289 115.57474 2809 ft 213 kts
2026-04-26 14:29 -31.76817 115.57669 2860 ft 211 kts
2026-04-26 14:30 -31.75350 115.57863 2862 ft 213 kts
2026-04-26 14:30 -31.73877 115.58060 2865 ft 214 kts
2026-04-26 14:30 -31.72395 115.58258 2869 ft 214 kts
2026-04-26 14:30 -31.70916 115.58453 2875 ft 214 kts
2026-04-26 14:31 -31.69407 115.58652 2995 ft 224 kts
2026-04-26 14:31 -31.67823 115.58870 3000 ft 228 kts
2026-04-26 14:31 -31.66275 115.59076 2998 ft 221 kts
2026-04-26 14:31 -31.64756 115.59270 2995 ft 218 kts
2026-04-26 14:32 -31.63251 115.59469 2992 ft 217 kts
2026-04-26 14:32 -31.61754 115.59668 2990 ft 216 kts
2026-04-26 14:32 -31.60257 115.59867 2991 ft 216 kts
2026-04-26 14:32 -31.58764 115.60065 2991 ft 216 kts
2026-04-26 14:33 -31.57774 115.60197 2991 ft 216 kts
2026-04-26 14:33 -31.56284 115.60406 2990 ft 213 kts
2026-04-26 14:33 -31.54881 115.60589 2989 ft 196 kts
2026-04-26 14:33 -31.53246 115.61178 2889 ft 170 kts 32°
2026-04-26 14:34 -31.52647 115.61721 2796 ft 154 kts 44°
2026-04-26 14:34 -31.51869 115.62983 2788 ft 143 kts 65°
2026-04-26 14:34 -31.51640 115.63729 2791 ft 145 kts 76°
2026-04-26 14:34 -31.51381 115.64876 2789 ft 146 kts 75°
2026-04-26 14:35 -31.51021 115.66402 2793 ft 147 kts 75°
2026-04-26 14:35 -31.50840 115.67184 2794 ft 147 kts 75°
2026-04-26 14:35 -31.50581 115.68309 2767 ft 138 kts 75°
2026-04-26 14:35 -31.50334 115.69378 2658 ft 135 kts 75°
2026-04-26 14:36 -31.50090 115.70441 2520 ft 135 kts 75°
2026-04-26 14:36 -31.49846 115.71503 2381 ft 135 kts 75°
2026-04-26 14:36 -31.49601 115.72563 2241 ft 134 kts 75°
2026-04-26 14:36 -31.49368 115.73577 2119 ft 128 kts 75°
2026-04-26 14:37 -31.49142 115.74557 1984 ft 122 kts 75°
2026-04-26 14:37 -31.48927 115.75488 1899 ft 119 kts 75°
2026-04-26 14:37 -31.48733 115.76323 1802 ft 90 kts 75°
2026-04-26 14:37 -31.48559 115.77052 1693 ft 101 kts 75°
2026-04-26 14:38 -31.48369 115.77881 1557 ft 109 kts 75°
2026-04-26 14:38 -31.48170 115.78754 1408 ft 112 kts 75°
2026-04-26 14:38 -31.47968 115.79637 1253 ft 112 kts 75°
2026-04-26 14:38 -31.47767 115.80517 1094 ft 112 kts 75°
2026-04-26 14:39 -31.47584 115.81366 941 ft 104 kts 76°
2026-04-26 14:39 -31.47411 115.82187 854 ft 104 kts 75°
2026-04-26 14:39 -31.47215 115.83007 754 ft 106 kts 73°
2026-04-26 14:39 -31.47014 115.83842 600 ft 107 kts 74°
2026-04-26 14:40 -31.46820 115.84650 429 ft 98 kts 75°
2026-04-26 14:40 -31.46642 115.85418 287 ft 95 kts 74°
2026-04-26 14:40 -31.46488 115.86066 252 ft 69 kts 75°
2026-04-26 14:40 -31.46388 115.86508 249 ft 34 kts 75°
2026-04-26 14:41 -31.46387 115.86647 248 ft 15 kts 137°
2026-04-26 14:41 -31.46467 115.86673 251 ft 12 kts 198°
2026-04-26 14:41 -31.46520 115.86593 251 ft 15 kts 258°
2026-04-26 14:41 -31.46549 115.86466 251 ft 17 kts 253°
2026-04-26 14:42 -31.46581 115.86320 251 ft 20 kts 256°